Station Historical Data
Daily Summary for April 17, 2017 Units:  English    Metric   Both
Next Day »
Daily Weekly Monthly Yearly Custom
  High: Low: Average:
Temperature: 52.1 °F 46.7 °F 49.2 °F
Dew Point: 49.8 °F 44.2 °F 46.6 °F
Humidity: 92% 90% 91%
Wind Speed: 23.0mph 0.0mph 3.4mph
Wind Gust: 26.0mph - -
Wind- - South
Pressure: 30.09 in 30.01 in -
Precipitation: 0.49 in    
Historical Graphs
 
 
Tabular Data for April 17, 2017
Time Temperature Dew Point Pressure Wind Wind Speed Wind Gust Humidity Rainfall Rate (Hourly) solar Conditions
00:02 47.7 °F 44.9 °F 30.03 in Calm   11.0 mph 90% 0.07 in 0.00 W/m2
00:07 47.8 °F 45.0 °F 30.04 in South 5.0 mph 10.0 mph 90% 0.07 in 0.00 W/m2
00:12 47.8 °F 45.0 °F 30.04 in Calm   11.0 mph 90% 0.05 in 0.00 W/m2
00:17 47.8 °F 45.0 °F 30.04 in SSW 8.0 mph 13.0 mph 90% 0.04 in 0.00 W/m2
00:22 47.8 °F 45.0 °F 30.04 in South 5.0 mph 10.0 mph 90% 0.04 in 0.00 W/m2
00:27 47.8 °F 45.0 °F 30.05 in SSW 5.0 mph 11.0 mph 90% 0.04 in 0.00 W/m2
00:32 47.8 °F 45.0 °F 30.05 in SSE 7.0 mph 12.0 mph 90% 0.68 in 0.00 W/m2
00:37 47.8 °F 45.0 °F 30.05 in SSE 7.0 mph 7.0 mph 90% 0.22 in 0.00 W/m2
00:42 47.9 °F 45.1 °F 30.05 in SSE 8.0 mph 11.0 mph 90% 0.08 in 0.00 W/m2
00:47 47.9 °F 45.1 °F 30.04 in SSE 8.0 mph 17.0 mph 90% 0.05 in 0.00 W/m2
00:52 47.9 °F 45.1 °F 30.04 in SSE 14.0 mph 18.0 mph 90% 0.00 in 0.00 W/m2
00:57 47.9 °F 45.1 °F 30.05 in SSW 8.0 mph 13.0 mph 90% 0.00 in 0.00 W/m2
01:02 48.0 °F 45.2 °F 30.05 in SSE 9.0 mph 11.0 mph 90% 0.45 in 0.00 W/m2
01:07 48.0 °F 45.2 °F 30.05 in South 6.0 mph 11.0 mph 90% 0.09 in 0.00 W/m2
01:12 47.9 °F 45.1 °F 30.06 in SSW 9.0 mph 9.0 mph 90% 0.05 in 0.00 W/m2
01:17 48.0 °F 45.2 °F 30.06 in SSE 6.0 mph 13.0 mph 90% 0.39 in 0.00 W/m2
01:22 48.0 °F 45.2 °F 30.06 in SW 16.0 mph 19.0 mph 90% 0.20 in 0.00 W/m2
01:27 48.0 °F 45.2 °F 30.06 in SSE 7.0 mph 17.0 mph 90% 0.12 in 0.00 W/m2
01:32 48.0 °F 45.2 °F 30.06 in South 13.0 mph 18.0 mph 90% 0.06 in 0.00 W/m2
01:37 48.0 °F 45.2 °F 30.06 in SE 17.0 mph 17.0 mph 90% 0.04 in 0.00 W/m2
01:42 47.9 °F 45.1 °F 30.06 in SSE 12.0 mph 18.0 mph 90% 0.00 in 0.00 W/m2
01:47 47.9 °F 45.1 °F 30.06 in SSE 15.0 mph 19.0 mph 90% 0.00 in 0.00 W/m2
01:52 47.9 °F 45.1 °F 30.06 in South 5.0 mph 16.0 mph 90% 0.00 in 0.00 W/m2
01:57 47.8 °F 45.0 °F 30.06 in SSW 12.0 mph 17.0 mph 90% 0.00 in 0.00 W/m2
02:03 47.8 °F 45.0 °F 30.06 in SSE 14.0 mph 17.0 mph 90% 0.00 in 0.00 W/m2
02:08 47.8 °F 45.0 °F 30.06 in South 9.0 mph 12.0 mph 90% 0.00 in 0.00 W/m2
02:13 47.8 °F 45.0 °F 30.06 in SSE 6.0 mph 12.0 mph 90% 0.00 in 0.00 W/m2
02:18 47.8 °F 45.0 °F 30.06 in SSE 11.0 mph 16.0 mph 90% 0.00 in 0.00 W/m2
02:23 47.8 °F 45.0 °F 30.06 in South 14.0 mph 14.0 mph 90% 0.00 in 0.00 W/m2
02:28 47.8 °F 45.0 °F 30.06 in South 5.0 mph 10.0 mph 90% 0.00 in 0.00 W/m2
02:33 47.8 °F 45.0 °F 30.06 in South 3.0 mph 14.0 mph 90% 0.00 in 0.00 W/m2
02:38 47.8 °F 45.0 °F 30.06 in Calm   15.0 mph 90% 0.00 in 0.00 W/m2
02:43 47.8 °F 45.0 °F 30.03 in SE 23.0 mph 23.0 mph 90% 0.00 in 0.00 W/m2
02:48 47.8 °F 45.0 °F 30.02 in SE 9.0 mph 26.0 mph 90% 0.00 in 0.00 W/m2
02:53 47.8 °F 45.0 °F 30.03 in SE 16.0 mph 20.0 mph 90% 0.00 in 0.00 W/m2
02:58 47.8 °F 45.0 °F 30.03 in SSE 12.0 mph 22.0 mph 90% 0.00 in 0.00 W/m2
03:03 47.8 °F 45.0 °F 30.03 in SE 8.0 mph 20.0 mph 90% 0.00 in 0.00 W/m2
03:08 47.8 °F 45.0 °F 30.02 in SE 16.0 mph 23.0 mph 90% 0.00 in 0.00 W/m2
03:13 47.8 °F 45.0 °F 30.01 in SE 21.0 mph 23.0 mph 90% 0.00 in 0.00 W/m2
03:18 47.8 °F 45.0 °F 30.02 in SSE 8.0 mph 18.0 mph 90% 0.00 in 0.00 W/m2
03:23 47.8 °F 45.0 °F 30.01 in SSE 12.0 mph 24.0 mph 90% 0.00 in 0.00 W/m2
03:28 47.7 °F 44.9 °F 30.02 in SSE 7.0 mph 15.0 mph 90% 0.00 in 0.00 W/m2
03:33 47.7 °F 44.9 °F 30.03 in South 9.0 mph 9.0 mph 90% 0.00 in 0.00 W/m2
03:38 47.7 °F 44.9 °F 30.04 in SSE 5.0 mph 11.0 mph 90% 0.00 in 0.00 W/m2
03:43 47.8 °F 45.0 °F 30.04 in SSW 2.0 mph 8.0 mph 90% 0.00 in 0.00 W/m2
03:48 47.8 °F 45.0 °F 30.05 in SW 5.0 mph 9.0 mph 90% 0.00 in 0.00 W/m2
03:53 47.8 °F 45.0 °F 30.04 in Calm     90% 0.00 in 0.00 W/m2
03:58 47.8 °F 45.0 °F 30.05 in Calm     90% 0.00 in 0.00 W/m2
04:03 47.8 °F 45.0 °F 30.05 in Calm     90% 0.00 in 0.00 W/m2
04:08 47.8 °F 45.0 °F 30.05 in SW 6.0 mph 12.0 mph 90% 0.00 in 0.00 W/m2
04:13 47.8 °F 45.0 °F 30.06 in Calm   11.0 mph 90% 0.00 in 0.00 W/m2
04:18 47.7 °F 44.9 °F 30.06 in Calm   9.0 mph 90% 0.00 in 0.00 W/m2
04:23 47.7 °F 44.9 °F 30.05 in SSW 8.0 mph 8.0 mph 90% 0.00 in 0.00 W/m2
04:28 47.7 °F 44.9 °F 30.06 in Calm   12.0 mph 90% 0.00 in 0.00 W/m2
04:33 47.7 °F 44.9 °F 30.06 in SSW 9.0 mph 17.0 mph 90% 0.00 in 0.00 W/m2
04:38 47.7 °F 44.9 °F 30.06 in SSW 9.0 mph 11.0 mph 90% 0.00 in 0.00 W/m2
04:43 47.7 °F 44.9 °F 30.06 in South 5.0 mph 10.0 mph 90% 0.00 in 0.00 W/m2
04:48 47.7 °F 44.9 °F 30.05 in Calm   11.0 mph 90% 0.00 in 0.00 W/m2
04:53 47.7 °F 44.9 °F 30.05 in SW 2.0 mph 13.0 mph 90% 0.07 in 0.00 W/m2
04:58 47.6 °F 44.8 °F 30.04 in Calm   12.0 mph 90% 0.07 in 0.00 W/m2
05:03 47.6 °F 44.8 °F 30.04 in Calm   14.0 mph 90% 0.05 in 0.00 W/m2
05:08 47.6 °F 44.8 °F 30.04 in South 11.0 mph 13.0 mph 90% 0.00 in 0.00 W/m2
05:13 47.6 °F 44.8 °F 30.04 in South 7.0 mph 15.0 mph 90% 0.00 in 0.00 W/m2
05:18 47.6 °F 44.8 °F 30.03 in SSE 6.0 mph 12.0 mph 90% 0.00 in 0.00 W/m2
05:23 47.5 °F 44.7 °F 30.04 in South 4.0 mph 11.0 mph 90% 0.00 in 0.00 W/m2
05:28 47.5 °F 44.7 °F 30.04 in South 6.0 mph 8.0 mph 90% 0.00 in 0.00 W/m2
05:34 47.5 °F 44.7 °F 30.04 in SSW 3.0 mph 10.0 mph 90% 0.00 in 0.00 W/m2
05:39 47.6 °F 44.8 °F 30.04 in SSW 6.0 mph 6.0 mph 90% 0.00 in 0.00 W/m2
05:44 47.5 °F 44.7 °F 30.05 in Calm   10.0 mph 90% 0.00 in 0.00 W/m2
05:49 47.6 °F 44.8 °F 30.04 in Calm     90% 0.00 in 0.00 W/m2
05:54 47.6 °F 44.8 °F 30.04 in South 9.0 mph 9.0 mph 90% 0.00 in 0.00 W/m2
05:59 47.6 °F 44.8 °F 30.04 in South 6.0 mph 9.0 mph 90% 0.00 in 0.00 W/m2
06:04 47.6 °F 44.8 °F 30.04 in South 5.0 mph 8.0 mph 90% 0.00 in 0.00 W/m2
06:09 47.6 °F 44.8 °F 30.04 in Calm   10.0 mph 90% 0.00 in 0.00 W/m2
06:14 47.6 °F 44.8 °F 30.04 in South 13.0 mph 13.0 mph 90% 0.00 in 0.00 W/m2
06:19 47.6 °F 44.8 °F 30.04 in South 2.0 mph 11.0 mph 90% 0.00 in 0.00 W/m2
06:24 47.7 °F 44.9 °F 30.04 in Calm     90% 0.00 in 0.00 W/m2
06:29 47.7 °F 44.9 °F 30.04 in Calm     90% 0.00 in 0.00 W/m2
06:34 47.7 °F 44.9 °F 30.04 in Calm     90% 0.00 in 0.00 W/m2
06:39 47.8 °F 45.0 °F 30.04 in Calm     90% 0.00 in 0.00 W/m2
06:44 47.8 °F 45.0 °F 30.05 in South 6.0 mph 10.0 mph 90% 0.00 in 0.00 W/m2
06:49 47.8 °F 45.0 °F 30.05 in Calm   10.0 mph 90% 0.00 in 0.00 W/m2
06:54 47.9 °F 45.1 °F 30.04 in South 2.0 mph 9.0 mph 90% 0.00 in 0.00 W/m2
06:59 47.9 °F 45.1 °F 30.04 in Calm   6.0 mph 90% 0.00 in 0.00 W/m2
07:04 47.9 °F 45.1 °F 30.05 in Calm   8.0 mph 90% 0.00 in 0.00 W/m2
07:09 47.9 °F 45.1 °F 30.05 in Calm   1.0 mph 90% 0.00 in 0.00 W/m2
07:14 47.9 °F 45.1 °F 30.05 in Calm     90% 0.00 in 0.00 W/m2
07:19 47.9 °F 45.1 °F 30.05 in Calm     90% 0.00 in 0.00 W/m2
07:24 47.9 °F 45.1 °F 30.05 in Calm     90% 0.00 in 0.00 W/m2
07:29 47.9 °F 45.1 °F 30.04 in Calm     90% 0.00 in 0.00 W/m2
07:34 47.9 °F 45.1 °F 30.04 in Calm     90% 0.00 in 0.00 W/m2
07:39 47.9 °F 45.1 °F 30.04 in Calm     90% 0.00 in 0.00 W/m2
07:44 47.9 °F 45.1 °F 30.04 in Calm     90% 0.00 in 0.00 W/m2
07:49 47.9 °F 45.1 °F 30.04 in Calm     90% 0.00 in 0.00 W/m2
07:54 47.9 °F 45.1 °F 30.04 in Calm     90% 0.00 in 0.00 W/m2
07:59 47.9 °F 45.1 °F 30.04 in Calm     90% 0.00 in 0.00 W/m2
08:04 47.9 °F 45.1 °F 30.05 in Calm     90% 0.00 in 0.00 W/m2
08:09 47.9 °F 45.1 °F 30.05 in Calm     90% 0.00 in 0.00 W/m2
08:14 47.9 °F 45.1 °F 30.05 in Calm     90% 0.00 in 0.00 W/m2
08:19 47.9 °F 45.1 °F 30.05 in Calm     90% 0.00 in 0.00 W/m2
08:24 47.9 °F 45.1 °F 30.05 in Calm     90% 0.00 in 0.00 W/m2
08:29 47.9 °F 45.1 °F 30.05 in Calm     90% 0.00 in 0.00 W/m2
08:34 47.9 °F 45.1 °F 30.05 in Calm     90% 0.00 in 0.00 W/m2
08:39 47.9 °F 45.1 °F 30.05 in Calm     90% 0.00 in 0.00 W/m2
08:44 47.9 °F 45.1 °F 30.05 in Calm     90% 0.00 in 0.00 W/m2
08:49 47.9 °F 45.1 °F 30.05 in Calm     90% 0.00 in 0.00 W/m2
08:54 47.9 °F 45.1 °F 30.05 in Calm     90% 0.00 in 0.00 W/m2
08:59 47.9 °F 45.1 °F 30.04 in Calm     90% 0.00 in 0.00 W/m2
09:04 47.8 °F 45.0 °F 30.04 in Calm     90% 0.00 in 0.00 W/m2
09:09 47.8 °F 45.0 °F 30.04 in Calm     90% 0.00 in 0.00 W/m2
09:14 47.8 °F 45.0 °F 30.04 in Calm     90% 0.00 in 0.00 W/m2
09:19 47.8 °F 45.0 °F 30.04 in Calm     90% 0.00 in 0.00 W/m2
09:24 47.7 °F 44.9 °F 30.05 in Calm     90% 0.00 in 0.00 W/m2
09:29 47.7 °F 44.9 °F 30.05 in Calm     90% 0.00 in 0.00 W/m2
09:34 47.7 °F 45.2 °F 30.05 in Calm     91% 0.00 in 0.00 W/m2
09:39 47.7 °F 45.2 °F 30.05 in Calm     91% 0.00 in 5.00 W/m2
09:44 47.7 °F 45.2 °F 30.05 in Calm     91% 0.00 in 5.00 W/m2
09:50 47.7 °F 45.2 °F 30.05 in Calm     91% 0.00 in 5.00 W/m2
09:55 47.7 °F 45.2 °F 30.05 in Calm     91% 0.00 in 5.00 W/m2
10:00 47.8 °F 45.3 °F 30.06 in Calm     91% 0.00 in 7.00 W/m2
10:05 47.7 °F 45.2 °F 30.06 in Calm     91% 0.00 in 7.00 W/m2
10:10 47.8 °F 45.3 °F 30.06 in Calm     91% 0.00 in 11.00 W/m2
10:15 47.8 °F 45.3 °F 30.06 in Calm     91% 0.00 in 7.00 W/m2
10:20 47.8 °F 45.3 °F 30.07 in Calm     91% 0.00 in 7.00 W/m2
10:25 47.8 °F 45.3 °F 30.07 in Calm     91% 0.00 in 12.00 W/m2
10:30 47.8 °F 45.3 °F 30.07 in Calm     91% 0.00 in 16.00 W/m2
10:35 47.8 °F 45.3 °F 30.06 in Calm     91% 0.00 in 39.00 W/m2
10:40 47.8 °F 45.3 °F 30.06 in Calm     91% 0.00 in 26.00 W/m2
10:45 47.8 °F 45.3 °F 30.06 in Calm     91% 0.00 in 21.00 W/m2
10:50 47.9 °F 45.4 °F 30.07 in SSE 2.0 mph 9.0 mph 91% 0.05 in 21.00 W/m2
10:55 47.9 °F 45.4 °F 30.06 in Calm   6.0 mph 91% 0.05 in 47.00 W/m2
11:00 48.0 °F 45.5 °F 30.07 in Calm   9.0 mph 91% 0.05 in 32.00 W/m2
11:05 48.0 °F 45.5 °F 30.07 in Calm   8.0 mph 91% 0.04 in 46.00 W/m2
11:10 48.0 °F 45.5 °F 30.07 in Calm   8.0 mph 91% 0.00 in 65.00 W/m2
11:15 48.1 °F 45.6 °F 30.07 in Calm     91% 0.00 in 65.00 W/m2
11:20 48.1 °F 45.6 °F 30.07 in Calm   2.0 mph 91% 0.00 in 65.00 W/m2
11:25 48.2 °F 45.7 °F 30.07 in Calm   2.0 mph 91% 0.00 in 40.00 W/m2
11:30 48.2 °F 45.7 °F 30.07 in Calm   8.0 mph 91% 0.00 in 39.00 W/m2
11:35 48.3 °F 45.8 °F 30.07 in Calm   6.0 mph 91% 0.00 in 32.00 W/m2
11:40 48.3 °F 45.8 °F 30.07 in Calm     91% 0.00 in 23.00 W/m2
11:45 48.3 °F 45.8 °F 30.08 in Calm     91% 0.00 in 23.00 W/m2
11:50 48.3 °F 45.8 °F 30.08 in Calm     91% 0.00 in 32.00 W/m2
11:55 48.3 °F 45.8 °F 30.08 in Calm   6.0 mph 91% 0.00 in 25.00 W/m2
12:00 48.4 °F 45.9 °F 30.08 in Calm     91% 0.00 in 35.00 W/m2
12:05 48.4 °F 45.9 °F 30.08 in Calm   7.0 mph 91% 0.00 in 44.00 W/m2
12:10 48.4 °F 45.9 °F 30.08 in South 4.0 mph 10.0 mph 91% 0.00 in 51.00 W/m2
12:15 48.4 °F 45.9 °F 30.08 in Calm   7.0 mph 91% 0.00 in 53.00 W/m2
12:20 48.5 °F 46.0 °F 30.08 in Calm     91% 0.00 in 70.00 W/m2
12:25 48.5 °F 46.0 °F 30.07 in Calm     91% 0.00 in 98.00 W/m2
12:30 48.5 °F 46.0 °F 30.07 in Calm     91% 0.00 in 90.00 W/m2
12:35 48.5 °F 46.0 °F 30.08 in Calm   7.0 mph 91% 0.00 in 70.00 W/m2
12:40 48.6 °F 46.1 °F 30.08 in Calm     91% 0.00 in 74.00 W/m2
12:45 48.6 °F 46.1 °F 30.08 in Calm     91% 0.00 in 76.00 W/m2
12:50 48.6 °F 46.1 °F 30.08 in Calm   7.0 mph 91% 0.00 in 97.00 W/m2
12:55 48.7 °F 46.2 °F 30.07 in South 5.0 mph 5.0 mph 91% 0.00 in 132.00 W/m2
13:00 48.7 °F 46.2 °F 30.07 in SE 5.0 mph 9.0 mph 91% 0.00 in 125.00 W/m2
13:05 48.8 °F 46.3 °F 30.07 in SSE 2.0 mph 9.0 mph 91% 0.00 in 213.00 W/m2
13:10 48.9 °F 46.4 °F 30.07 in Calm   10.0 mph 91% 0.00 in 156.00 W/m2
13:15 49.0 °F 46.5 °F 30.07 in Calm   11.0 mph 91% 0.00 in 141.00 W/m2
13:21 49.1 °F 46.6 °F 30.07 in Calm   8.0 mph 91% 0.00 in 105.00 W/m2
13:26 49.2 °F 46.7 °F 30.07 in Calm   4.0 mph 91% 0.00 in 102.00 W/m2
13:31 49.2 °F 46.7 °F 30.07 in Calm   7.0 mph 91% 0.00 in 111.00 W/m2
13:36 49.2 °F 46.7 °F 30.07 in Calm     91% 0.00 in 102.00 W/m2
13:41 49.3 °F 46.8 °F 30.07 in Calm   8.0 mph 91% 0.00 in 102.00 W/m2
13:46 49.4 °F 46.9 °F 30.07 in Calm   8.0 mph 91% 0.00 in 97.00 W/m2
13:51 49.4 °F 46.9 °F 30.07 in Calm   8.0 mph 91% 0.00 in 77.00 W/m2
13:56 49.5 °F 47.0 °F 30.07 in Calm   9.0 mph 91% 0.00 in 88.00 W/m2
14:01 49.6 °F 47.1 °F 30.07 in Calm   8.0 mph 91% 0.00 in 95.00 W/m2
14:06 49.7 °F 47.2 °F 30.06 in SSE 4.0 mph 13.0 mph 91% 0.00 in 95.00 W/m2
14:07 49.7 °F 47.2 °F 30.06 in SSE 5.0 mph 9.0 mph 91% 0.00 in 109.00 W/m2
14:12 49.8 °F 47.3 °F 30.06 in SSE 8.0 mph 13.0 mph 91% 0.00 in 76.00 W/m2
14:17 49.9 °F 47.4 °F 30.06 in Calm   11.0 mph 91% 0.00 in 81.00 W/m2
14:22 49.9 °F 47.4 °F 30.07 in SSE 12.0 mph 16.0 mph 91% 0.00 in 111.00 W/m2
14:27 50.0 °F 47.5 °F 30.07 in South 4.0 mph 7.0 mph 91% 0.00 in 105.00 W/m2
14:32 50.1 °F 47.6 °F 30.07 in South 6.0 mph 14.0 mph 91% 0.00 in 81.00 W/m2
14:37 50.2 °F 47.7 °F 30.06 in SSE 12.0 mph 14.0 mph 91% 0.00 in 125.00 W/m2
14:42 50.3 °F 47.8 °F 30.06 in Calm   13.0 mph 91% 0.00 in 137.00 W/m2
14:47 50.4 °F 47.9 °F 30.06 in SSE 2.0 mph 12.0 mph 91% 0.00 in 134.00 W/m2
14:52 50.5 °F 48.0 °F 30.07 in SSE 11.0 mph 17.0 mph 91% 0.00 in 121.00 W/m2
14:57 50.6 °F 48.1 °F 30.07 in Calm   15.0 mph 91% 0.00 in 139.00 W/m2
15:02 50.7 °F 48.2 °F 30.06 in South 11.0 mph 12.0 mph 91% 0.00 in 118.00 W/m2
15:07 50.8 °F 48.3 °F 30.06 in Calm   16.0 mph 91% 0.00 in 113.00 W/m2
15:12 50.9 °F 48.4 °F 30.06 in South 9.0 mph 16.0 mph 91% 0.00 in 141.00 W/m2
15:17 51.0 °F 48.5 °F 30.06 in SSE 8.0 mph 17.0 mph 91% 0.00 in 102.00 W/m2
15:18 51.1 °F 48.6 °F 30.06 in Calm   17.0 mph 91% 0.00 in 102.00 W/m2
15:23 51.1 °F 48.6 °F 30.07 in Calm   6.0 mph 91% 0.00 in 79.00 W/m2
15:28 51.2 °F 48.7 °F 30.07 in SSE 17.0 mph 19.0 mph 91% 0.00 in 88.00 W/m2
15:33 51.3 °F 48.8 °F 30.07 in South 8.0 mph 14.0 mph 91% 0.00 in 76.00 W/m2
15:38 51.3 °F 48.8 °F 30.08 in South 6.0 mph 10.0 mph 91% 0.00 in 72.00 W/m2
15:43 51.4 °F 48.9 °F 30.07 in SSE 15.0 mph 17.0 mph 91% 0.00 in 62.00 W/m2
15:48 51.4 °F 48.9 °F 30.08 in Calm   11.0 mph 91% 0.00 in 67.00 W/m2
15:53 51.5 °F 49.0 °F 30.08 in South 10.0 mph 16.0 mph 91% 0.00 in 63.00 W/m2
15:58 51.5 °F 49.0 °F 30.08 in SSW 8.0 mph 14.0 mph 91% 0.00 in 67.00 W/m2
16:03 51.4 °F 48.9 °F 30.08 in SW 10.0 mph 16.0 mph 91% 0.00 in 125.00 W/m2
16:08 51.5 °F 49.0 °F 30.08 in South 5.0 mph 14.0 mph 91% 0.00 in 98.00 W/m2
16:13 51.4 °F 48.9 °F 30.08 in Calm   16.0 mph 91% 0.00 in 51.00 W/m2
16:18 51.5 °F 49.0 °F 30.08 in South 4.0 mph 8.0 mph 91% 0.00 in 72.00 W/m2
16:23 51.5 °F 49.0 °F 30.08 in South 4.0 mph 17.0 mph 91% 0.00 in 58.00 W/m2
16:28 51.5 °F 49.0 °F 30.08 in Calm   11.0 mph 91% 0.00 in 70.00 W/m2
16:33 51.5 °F 49.0 °F 30.08 in SSW 1.0 mph 13.0 mph 91% 0.04 in 100.00 W/m2
16:38 51.5 °F 49.0 °F 30.08 in South 8.0 mph 11.0 mph 91% 0.04 in 70.00 W/m2
16:43 51.5 °F 49.0 °F 30.08 in SW 6.0 mph 11.0 mph 91% 0.04 in 69.00 W/m2
16:48 51.5 °F 49.0 °F 30.09 in Calm   2.0 mph 91% 0.00 in 95.00 W/m2
16:53 51.5 °F 49.0 °F 30.09 in South 6.0 mph 7.0 mph 91% 0.00 in 109.00 W/m2
16:58 51.5 °F 49.0 °F 30.08 in Calm   4.0 mph 91% 0.00 in 98.00 W/m2
17:03 51.5 °F 49.0 °F 30.08 in SSW 4.0 mph 7.0 mph 91% 0.06 in 183.00 W/m2
17:08 51.6 °F 49.1 °F 30.08 in Calm   5.0 mph 91% 0.06 in 172.00 W/m2
17:13 51.6 °F 49.1 °F 30.08 in Calm   6.0 mph 91% 0.05 in 183.00 W/m2
17:18 51.6 °F 49.1 °F 30.08 in Calm   8.0 mph 91% 0.05 in 174.00 W/m2
17:23 51.7 °F 49.2 °F 30.09 in South 7.0 mph 10.0 mph 91% 0.05 in 160.00 W/m2
17:28 51.7 °F 49.2 °F 30.09 in Calm   9.0 mph 91% 0.04 in 183.00 W/m2
17:33 51.7 °F 49.2 °F 30.09 in South 2.0 mph 10.0 mph 91% 0.00 in 176.00 W/m2
17:38 51.7 °F 49.2 °F 30.08 in Calm   13.0 mph 91% 0.00 in 181.00 W/m2
17:43 51.7 °F 49.2 °F 30.08 in SSW 9.0 mph 10.0 mph 91% 0.00 in 160.00 W/m2
17:48 51.7 °F 49.2 °F 30.08 in Calm   10.0 mph 91% 0.00 in 153.00 W/m2
17:53 51.7 °F 49.2 °F 30.09 in SW 6.0 mph 11.0 mph 91% 0.00 in 149.00 W/m2
17:59 51.7 °F 49.2 °F 30.09 in Calm   7.0 mph 91% 0.00 in 114.00 W/m2
18:04 51.7 °F 49.2 °F 30.09 in SSW 5.0 mph 10.0 mph 91% 0.00 in 107.00 W/m2
18:09 51.7 °F 49.2 °F 30.09 in SW 6.0 mph 9.0 mph 91% 0.00 in 123.00 W/m2
18:14 51.7 °F 49.2 °F 30.09 in South 8.0 mph 11.0 mph 91% 0.00 in 121.00 W/m2
18:19 51.7 °F 49.2 °F 30.09 in SSW 8.0 mph 10.0 mph 91% 0.00 in 169.00 W/m2
18:24 51.6 °F 49.1 °F 30.09 in South 9.0 mph 11.0 mph 91% 0.00 in 91.00 W/m2
18:29 51.6 °F 49.1 °F 30.09 in Calm   4.0 mph 91% 0.00 in 83.00 W/m2
18:34 51.6 °F 49.1 °F 30.09 in Calm   10.0 mph 91% 0.00 in 81.00 W/m2
18:39 51.6 °F 49.1 °F 30.09 in Calm   3.0 mph 91% 0.00 in 67.00 W/m2
18:44 51.6 °F 49.1 °F 30.09 in Calm   9.0 mph 91% 0.00 in 51.00 W/m2
18:49 51.6 °F 49.1 °F 30.09 in Calm     91% 0.00 in 67.00 W/m2
18:54 51.6 °F 49.1 °F 30.09 in Calm     91% 0.00 in 74.00 W/m2
18:59 51.6 °F 49.1 °F 30.08 in Calm   1.0 mph 91% 0.00 in 60.00 W/m2
19:04 51.6 °F 49.1 °F 30.08 in Calm   10.0 mph 91% 0.00 in 120.00 W/m2
19:09 51.6 °F 49.1 °F 30.08 in Calm   7.0 mph 91% 0.00 in 104.00 W/m2
19:14 51.6 °F 49.1 °F 30.07 in South 7.0 mph 9.0 mph 91% 0.00 in 116.00 W/m2
19:19 51.7 °F 49.2 °F 30.07 in Calm   8.0 mph 91% 0.00 in 116.00 W/m2
19:24 51.7 °F 49.2 °F 30.06 in SSE 6.0 mph 10.0 mph 91% 0.00 in 120.00 W/m2
19:29 51.8 °F 49.3 °F 30.06 in Calm   11.0 mph 91% 0.00 in 88.00 W/m2
19:34 51.9 °F 49.4 °F 30.06 in Calm   14.0 mph 91% 0.00 in 105.00 W/m2
19:40 51.9 °F 49.4 °F 30.07 in Calm   11.0 mph 91% 0.00 in 95.00 W/m2
19:45 51.9 °F 49.4 °F 30.07 in Calm   8.0 mph 91% 0.00 in 62.00 W/m2
19:50 52.0 °F 49.8 °F 30.07 in SSE 7.0 mph 11.0 mph 92% 0.00 in 63.00 W/m2
19:55 52.0 °F 49.8 °F 30.08 in Calm   12.0 mph 92% 0.00 in 56.00 W/m2
20:00 52.0 °F 49.8 °F 30.08 in Calm   2.0 mph 92% 0.00 in 77.00 W/m2
20:05 52.0 °F 49.8 °F 30.07 in Calm     92% 0.00 in 69.00 W/m2
20:10 52.0 °F 49.8 °F 30.07 in SE 7.0 mph 10.0 mph 92% 0.00 in 63.00 W/m2
20:15 52.0 °F 49.8 °F 30.08 in Calm   1.0 mph 92% 0.00 in 56.00 W/m2
20:20 52.0 °F 49.8 °F 30.08 in Calm   1.0 mph 92% 0.00 in 49.00 W/m2
20:25 52.1 °F 49.8 °F 30.08 in Calm     92% 0.00 in 39.00 W/m2
20:30 52.1 °F 49.8 °F 30.08 in SSE 8.0 mph 9.0 mph 92% 0.00 in 40.00 W/m2
20:31 52.1 °F 49.8 °F 30.08 in Calm   9.0 mph 92% 0.00 in 25.00 W/m2
20:36 52.1 °F 49.8 °F 30.08 in South 8.0 mph 8.0 mph 92% 0.28 in 14.00 W/m2
20:41 52.1 °F 49.8 °F 30.08 in SSW 2.0 mph 4.0 mph 92% 0.37 in 16.00 W/m2
20:46 52.1 °F 49.6 °F 30.08 in SSW 14.0 mph 15.0 mph 91% 0.33 in 35.00 W/m2
20:51 51.9 °F 49.4 °F 30.08 in South 5.0 mph 6.0 mph 91% 0.18 in 23.00 W/m2
20:56 51.7 °F 49.2 °F 30.08 in WSW 3.0 mph 10.0 mph 91% 0.15 in 23.00 W/m2
21:01 51.5 °F 49.0 °F 30.08 in Calm     91% 0.09 in 25.00 W/m2
21:06 51.4 °F 48.9 °F 30.08 in SW 5.0 mph 13.0 mph 91% 0.08 in 14.00 W/m2
21:12 51.2 °F 48.7 °F 30.07 in SSW 13.0 mph 13.0 mph 91% 0.17 in 16.00 W/m2
21:17 51.0 °F 48.5 °F 30.08 in Calm   8.0 mph 91% 0.10 in 23.00 W/m2
21:18 50.9 °F 48.4 °F 30.08 in SSW 3.0 mph 9.0 mph 91% 0.07 in 21.00 W/m2
21:23 50.9 °F 48.4 °F 30.08 in Calm   10.0 mph 91% 0.05 in 19.00 W/m2
21:28 50.8 °F 48.3 °F 30.08 in SSW 5.0 mph 9.0 mph 91% 0.05 in 19.00 W/m2
21:34 50.8 °F 48.3 °F 30.07 in SSW 8.0 mph 11.0 mph 91% 0.05 in 19.00 W/m2
21:36 50.8 °F 48.3 °F 30.07 in SSW 3.0 mph 11.0 mph 91% 0.05 in 23.00 W/m2
21:41 50.8 °F 48.3 °F 30.08 in Calm   8.0 mph 91% 0.00 in 14.00 W/m2
21:46 50.8 °F 48.3 °F 30.08 in SW 7.0 mph 13.0 mph 91% 0.00 in 11.00 W/m2
21:51 50.7 °F 48.2 °F 30.08 in SSW 4.0 mph 12.0 mph 91% 0.00 in 12.00 W/m2
21:56 50.7 °F 48.2 °F 30.08 in SSW 6.0 mph 12.0 mph 91% 0.06 in 11.00 W/m2
22:01 50.6 °F 48.1 °F 30.08 in SW 8.0 mph 11.0 mph 91% 0.06 in 11.00 W/m2
22:06 50.6 °F 48.1 °F 30.08 in SW 4.0 mph 14.0 mph 91% 0.06 in 5.00 W/m2
22:11 50.6 °F 48.1 °F 30.08 in SW 3.0 mph 12.0 mph 91% 0.06 in 5.00 W/m2
22:16 50.6 °F 48.1 °F 30.08 in SSW 6.0 mph 11.0 mph 91% 0.10 in 5.00 W/m2
22:21 50.5 °F 48.0 °F 30.08 in SW 6.0 mph 13.0 mph 91% 0.06 in 0.00 W/m2
22:26 50.5 °F 48.0 °F 30.08 in Calm   14.0 mph 91% 0.05 in 0.00 W/m2
22:31 50.5 °F 48.0 °F 30.08 in Calm   8.0 mph 91% 0.05 in 0.00 W/m2
22:36 50.4 °F 47.9 °F 30.08 in Calm   6.0 mph 91% 0.08 in 0.00 W/m2
22:41 50.4 °F 47.9 °F 30.08 in Calm   7.0 mph 91% 0.15 in 0.00 W/m2
22:46 50.4 °F 47.9 °F 30.08 in SW 6.0 mph 7.0 mph 91% 0.15 in 0.00 W/m2
22:51 50.4 °F 47.9 °F 30.07 in Calm     91% 0.10 in 0.00 W/m2
22:56 50.3 °F 47.8 °F 30.08 in Calm     91% 0.09 in 0.00 W/m2
23:01 50.1 °F 47.6 °F 30.08 in Calm     91% 0.07 in 0.00 W/m2
23:06 49.9 °F 47.4 °F 30.08 in Calm     91% 0.13 in 0.00 W/m2
23:11 49.6 °F 47.1 °F 30.08 in Calm     91% 0.08 in 0.00 W/m2
23:16 49.0 °F 46.5 °F 30.08 in Calm     91% 0.05 in 0.00 W/m2
23:21 48.6 °F 46.1 °F 30.08 in Calm     91% 0.04 in 0.00 W/m2
23:26 48.2 °F 45.7 °F 30.07 in Calm     91% 0.04 in 0.00 W/m2
23:31 47.8 °F 45.3 °F 30.07 in Calm     91% 0.05 in 0.00 W/m2
23:36 47.5 °F 45.0 °F 30.08 in Calm     91% 0.05 in 0.00 W/m2
23:41 47.3 °F 44.8 °F 30.08 in Calm     91% 0.05 in 0.00 W/m2
23:46 47.0 °F 44.5 °F 30.08 in Calm     91% 0.04 in 0.00 W/m2
23:51 46.8 °F 44.3 °F 30.08 in Calm     91% 0.00 in 0.00 W/m2
23:56 46.7 °F 44.2 °F 30.09 in Calm     91% 0.00 in 0.00 W/m2
Foresthill Weather
 WU-history PHP script courtesy of   Juneau County Weather.
powered by Cumulus v1.9.3 (1059)
Ambient Weather VWS v14.00
Top Contact Website Map Copyright © 2007 - 2018 Foresthillweather.com Never base important decisions on this or any weather information obtained from the Internet